マックホルツ彗星

C/2004 Q2 ( Machholz )

English version
Home page
Updated on July 26, 2025

---------------------------------------------------------------------

・ プロフィール

発見日 2004年8月27日
発見光度 11.2等
発見者 Donald Edward Machholz (Colfax, CA)

・ 写真集

・ 軌道要素

Epoch 2005 Jan. 30.0 TT = JDT 2453400.5
T 2005 Jan. 24.91122 TT                                 MPC
q   1.2050454            (2000.0)            P               Q
z  +0.0004430      Peri.   19.50425     -0.32003074     -0.71420604
                   Node    93.62406     +0.76513268     -0.58231216
e   0.9994661      Incl.   38.58935     +0.55870593     +0.38835845
From 3492 observations 2004 Aug. 27-2006 Sept. 9, mean residual 0".6.
     Nongravitational parameters A1 = +1.24, A2 = +0.1272.

・ 星図

・ 光度変化

        m1 = 5.0 + 5 logΔ + 10.0 log r

---------------------------------------------------------------------

軌道要素はM.P.E.C. 2013-N23に掲載されたものです。
星図は StellaNavigator Ver.2.0 for Windows (アストロアーツ 編著 / アスキー出版局刊) で作成したものです。
光度グラフはComet for Windowsで作成したものです。

---------------------------------------------------------------------

Copyright(C) Seiichi Yoshida (comet@aerith.net). All rights reserved.